Regional Weather Roundup
Issued by NWS Midland/Odessa, TX

Skip options and go directly to product.
Home | Oldest Version | Previous Version | Current Version | All | Text Only | Save Text | Print | Product List | Glossary On

Skip product version selection by date and time.   
301
ASUS44 KMAF 242210
RWRMAF
MIDLAND AREA WEATHER ROUNDUP
NATIONAL WEATHER SERVICE MIDLAND TX
500 PM CDT SAT SEP 24 2016

...IN SOUTHWEST TEXAS AND SOUTHEAST NEW MEXICO...

CITY           SKY/WX    TMP DP  RH WIND       PRES   REMARKS
ALPINE         CLOUDY    73  58  59 E9        30.10F
ANDREWS        NOT AVBL
ARTESIA        SUNNY     84  48  28 SW16      29.93F
BIG SPRING     SUNNY     87  54  31 W12G18    29.91S
CARLSBAD       PTSUNNY   83  52  34 S6        29.92F
DRYDEN           N/A     82  70  66 SE17      29.90S
FORT STOCKTON  PTSUNNY   82  51  34 W14       29.94F
GUAD PASS      MOSUNNY   79  46  31 SW25G35   30.08F
HOBBS          MOSUNNY   82  50  32 SW8G16    29.97F
MARFA          CLOUDY   N/A N/A N/A NW9       30.07F
MIDLAND AIRPK  PTSUNNY   87  53  31 W7        29.92S
MIDLAND INTL   PTSUNNY   86  58  38 W9        29.92F
ODESSA         PTSUNNY   84  54  35 NW8       29.94F
PECOS          LGT RAIN  85  50  29 W5        29.92F
PRESIDIO       NOT AVBL
SEMINOLE       SUNNY     79  57  46 CALM      29.96S
SNYDER           N/A     71  66  83 CALM      29.94R THUNDER
WINK           CLOUDY    86  49  27 S5        29.91F
$$
...OTHER STATIONS IN TEXAS...

CITY           SKY/WX    TMP DP  RH WIND       PRES   REMARKS
ABILENE        PTSUNNY   87  68  52 S9        29.86F
AMARILLO       SUNNY     85  42  22 SW21G29   29.92F
AUSTIN         CLOUDY    77  74  90 SW7       29.91S THUNDER
BROWNSVILLE    SUNNY     93  70  46 S18       29.86F
CORPUS CHRISTI MOSUNNY   91  75  59 SE18G25   29.85F HX 101
DALLAS FTW     CLOUDY    88  71  57 SE15      29.89F
DEL RIO        MOSUNNY   89  69  51 SE10      29.83F
EL PASO        MOSUNNY   83  42  23 W13G22    29.99F
HOUSTON INT    CLOUDY    78  74  87 E7        29.96F
LUBBOCK        PTSUNNY   79  60  52 SW7       29.95R
SAN ANGELO     MOSUNNY   91  65  41 S15G24    29.87F
SAN ANTONIO    CLOUDY    82  76  81 E7        29.90F
WACO           MOSUNNY   93  71  48 S10       29.89F HX 100
WICHITA FALLS  NOT AVBL
$$
...OTHER LOCATIONS IN NEW MEXICO...

CITY           SKY/WX    TMP DP  RH WIND       PRES   REMARKS
ALAMAGORDO     SUNNY     81  37  21 W10G22    30.01F
ALBUQUERQUE    MOSUNNY   71  29  21 N13G21    30.10F
CANNON AFB     SUNNY     81  30  16 W18       29.97F
CLOVIS         SUNNY     81  37  21 SW17      29.98F
HOLLOMAN AFB   SUNNY     81  38  21 VRB6      29.98F
ROSWELL        PTSUNNY   85  47  26 E8        29.94F
RUIDOSO        SUNNY     68  30  24 NW14G22   30.16F
SANTA FE       SUNNY     66  31  27 N13G18    30.13F
TRUTH OR CONSE MOSUNNY   78  37  22 E7        30.02F
TUCUMCARI      SUNNY     84  22  10 W15G28    29.94F
$$

USA.gov is the U.S. government's official web portal to all federal, state and local government web resources and services.